Location: Ferma
(41.9500°N, 44.5167°E)
Time: 19:56:03
(UTC+00:00)

FENGYUN 1C DEB - Pass Details

Date: 13 August 2022
Orbit: 606 x 930 km, 99.7° (Epoch: 01 October)

Event Time Altitude Azimuth Distance (km) Brightness Sun altitude
Exits shadow 18:43:21 24° 219° (SW) 1,524 ? -24.6°
Maximum altitude 18:45:28 34° 263° (W) 1,264 ? -24.8°
Drops below altitude 10° 18:50:18 10° 327° (NNW) 2,430 ? -25.4°
Sets 18:52:59 0° 337° (NNW) 3,420 ? -25.7°
